Location: Jackson Park
(37.2862°N, 79.9123°W)
Time: 14:30:01
(UTC+00:00)

Vanguard 2 - Pass Details

Date: 14 May 2026
Orbit: 553 x 2894 km, 32.9° (Epoch: 6 June)

Event Time Altitude Azimuth Distance (km) Brightness Sun altitude
Rises 05:51:42 0° 219° (SW) 6,153 - -33.4°
Reaches altitude 10° 05:55:48 10° 213° (SSW) 5,359 - -33.3°
Exits shadow 06:09:06 43° 163° (SSE) 3,673 10.5 -32.7°
Maximum altitude 06:11:07 44° 148° (SSE) 3,632 10.5 -32.6°
Drops below altitude 10° 06:26:10 10° 85° (E) 5,304 12.0 -31.7°
Sets 06:30:09 0° 79° (E) 6,089 12.5 -31.4°
